Theta_e
316 316 316 316 316 317 317 317 317 318 318 318 318 317 317 317 317 311 304 314 318 332 329 316 310 306 304 298 301 302 293 289 292 295 297 303 302 307 308 305 309 308 309 331 346
316 315 316 316 316 317 317 317 318 318 318 318 317 317 318 317 309 307 318 329 333 332 311 306 304 306 300 298 298 295 289 293 300 301 300 304 304 306 306 306 307 308 312 332 347
315 315 315 315 316 316 316 317 318 318 318 318 318 318 318 315 305 306 327 332 331 327 314 311 307 304 297 298 300 296 292 297 300 301 303 304 305 308 305 303 305 305 307 318 343
314 314 314 315 315 316 316 317 317 318 318 318 320 319 318 311 292 308 333 334 329 320 312 309 304 300 294 295 298 293 299 300 301 302 301 301 304 303 304 305 309 308 309 313 316
314 314 314 314 315 315 316 316 317 317 316 318 321 319 310 298 297 311 337 331 323 316 311 302 299 296 294 297 299 296 298 301 302 301 300 303 301 301 302 307 309 309 309 308 312
313 313 313 313 314 315 316 316 316 316 316 319 322 320 308 293 305 309 318 320 319 311 302 301 299 301 297 296 296 299 300 300 301 300 300 300 301 301 304 307 307 307 307 306 308
314 313 312 313 313 315 316 315 315 316 317 318 322 317 305 296 305 306 305 301 304 305 301 301 301 300 300 296 301 300 296 299 299 298 298 301 298 299 303 305 304 304 306 307 307
313 312 312 312 313 314 315 315 315 317 318 319 321 313 296 305 305 304 304 305 307 305 303 303 301 297 297 300 299 295 293 287 294 298 299 298 291 300 303 304 303 304 305 307 307
313 312 312 312 313 314 314 314 317 321 319 319 312 308 293 310 305 305 303 303 304 304 304 307 298 294 294 289 286 290 284 287 290 298 298 297 292 300 304 303 302 303 304 305 305
312 311 311 312 312 313 312 313 317 316 316 318 315 299 301 300 305 306 305 305 302 301 299 296 291 288 286 285 279 283 283 286 288 293 295 293 293 296 299 301 300 302 304 304 304
312 311 311 312 312 312 308 301 298 298 300 298 301 300 302 306 307 303 305 303 301 296 288 292 286 283 287 288 289 289 286 285 288 295 294 292 292 293 297 298 299 301 302 304 305
311 311 311 311 311 311 304 296 299 300 295 305 306 303 305 304 299 302 304 296 295 289 292 287 283 290 292 291 290 288 286 285 289 294 291 289 289 292 296 297 298 299 301 303 305
310 310 311 311 310 306 302 298 304 305 294 302 306 301 300 299 298 299 301 297 293 289 289 285 289 295 293 290 288 286 284 285 285 290 289 287 285 289 294 297 299 301 301 303 304
310 310 310 309 303 301 297 301 306 306 291 298 299 299 300 300 298 304 303 298 293 290 290 287 293 292 290 289 289 284 290 290 288 285 279 286 278 286 288 293 295 298 298 301 301
310 310 309 309 298 299 302 298 306 305 279 295 295 301 299 296 299 301 305 300 293 293 291 288 290 290 288 290 292 287 292 289 288 285 281 284 277 282 290 289 292 296 299 300 301
309 309 309 306 300 303 304 300 304 290 280 292 295 293 293 297 300 301 301 301 298 292 292 291 295 292 290 293 293 294 289 288 286 282 273 283 280 281 285 288 293 297 305 307 304
308 308 305 306 298 302 301 302 290 280 293 289 290 294 292 295 296 297 295 290 286 283 283 288 288 293 295 290 292 290 283 273 272 274 274 285 282 282 288 293 300 301 305 306 308
306 306 306 306 302 303 300 293 282 289 288 293 292 293 292 295 294 295 293 288 292 289 283 281 280 289 294 291 287 286 287 280 274 270 277 286 280 285 298 301 303 303 304 306 306
304 299 304 308 307 302 296 283 283 288 292 291 291 290 289 293 293 292 290 290 292 291 282 281 284 293 295 295 292 288 284 290 284 281 280 282 287 293 298 299 301 301 304 304 306
296 298 303 307 303 300 291 288 288 294 294 293 286 290 285 289 289 288 289 294 293 295 292 288 282 292 294 295 296 293 294 284 284 276 275 282 285 287 291 294 297 298 301 303 304
298 298 305 304 303 294 286 286 293 296 295 292 289 288 289 288 289 287 290 294 298 295 294 289 284 287 291 289 287 289 287 288 287 286 279 278 282 292 292 295 293 295 298 300 301
294 292 304 302 291 288 286 292 297 295 297 295 292 291 289 289 288 288 289 292 299 298 290 290 287 283 285 292 295 294 290 289 282 277 284 282 284 295 294 294 294 294 296 298 300
289 293 304 299 285 285 291 295 297 295 293 293 291 293 292 286 281 290 291 298 298 297 291 290 282 278 280 287 294 288 291 292 289 288 283 281 284 295 293 291 293 292 294 295 297
292 291 293 294 292 289 288 291 292 298 295 295 292 293 289 288 289 286 288 295 299 297 301 296 284 281 278 283 288 286 290 289 287 283 282 282 283 288 289 289 290 291 292 294 296
294 289 291 285 288 288 287 291 292 291 293 291 289 291 287 281 285 286 290 292 296 299 296 289 284 285 287 288 289 289 288 287 285 286 282 283 284 288 289 290 290 292 293 293 293
292 289 290 289 290 290 290 289 292 292 289 288 287 291 290 283 285 285 288 289 289 293 290 291 287 288 285 289 290 288 287 287 287 287 287 285 285 291 292 292 290 291 292 290 291
295 296 291 289 288 287 288 290 291 292 292 293 291 288 288 290 295 295 295 295 293 290 290 292 289 287 282 287 286 284 286 286 286 288 286 282 286 289 288 288 289 290 291 290 291
Wind_Speed
20 19 18 18 17 16 16 16 17 17 16 15 14 12 11 12 12 1 2 8 5 1 2 7 2 2 3 3 3 1 1 5 5 4 10 13 13 15 6 7 10 7 11 13 22
21 21 21 20 18 17 15 14 14 13 12 12 12 11 10 10 3 3 7 5 4 4 1 4 5 6 1 3 3 4 4 6 5 6 11 19 17 23 16 20 21 13 22 8 27
21 21 21 20 20 18 18 17 16 14 11 10 9 7 7 4 2 3 6 5 3 3 3 0 2 1 2 1 5 5 8 9 17 15 14 24 23 21 17 26 9 11 11 12 15
22 22 22 20 19 18 18 17 16 15 13 11 9 4 2 2 5 4 8 6 2 2 4 3 5 6 3 5 6 7 8 11 14 15 14 21 20 27 19 24 13 8 6 1 6
22 23 22 21 20 19 18 16 14 13 11 9 7 3 1 2 1 3 4 3 2 1 3 2 4 3 3 8 9 6 7 10 11 11 11 15 16 20 29 22 16 10 8 6 4
22 23 22 21 20 19 19 18 13 10 9 8 8 5 1 9 5 3 4 4 5 4 4 5 4 6 5 3 5 7 17 14 13 12 9 12 16 12 26 16 16 12 11 8 8
21 22 23 22 21 20 20 20 16 12 9 6 7 3 2 3 3 5 5 2 4 2 4 5 4 1 5 7 10 6 18 16 13 9 11 12 22 16 11 18 14 10 9 8 10
23 22 23 23 22 21 21 21 20 13 6 4 4 1 3 3 2 7 4 6 8 5 4 8 5 3 3 5 7 8 5 6 7 15 5 6 13 12 13 17 19 17 9 9 7
24 24 23 24 23 23 22 21 16 6 1 3 1 3 2 4 7 2 4 8 7 7 10 9 5 1 6 5 6 6 5 15 14 7 10 6 7 12 15 14 17 17 18 14 11
25 25 24 23 23 21 26 15 7 4 3 2 2 3 5 5 6 1 5 5 4 6 6 4 5 4 5 6 5 11 6 8 14 8 9 12 9 8 12 11 13 17 16 16 10
25 25 24 24 20 18 13 6 8 8 7 1 10 4 2 6 6 2 2 1 4 5 3 5 7 6 10 7 8 11 10 10 11 14 7 13 14 9 10 14 12 13 16 18 16
25 26 25 25 22 18 1 5 3 6 7 7 8 7 5 4 4 1 2 3 4 6 9 6 3 8 9 9 8 9 11 9 9 10 7 10 16 14 7 8 7 15 17 17 18
24 25 25 26 25 3 2 4 3 7 2 8 5 1 5 3 4 1 0 2 3 5 8 3 9 13 13 11 9 6 6 7 6 7 5 8 11 8 8 8 10 12 11 11 15
24 24 23 27 4 5 4 6 4 6 5 4 4 2 5 8 2 3 2 2 2 6 7 4 7 14 11 9 5 10 7 6 9 4 5 1 14 12 10 10 10 12 9 9 11
24 23 22 10 2 3 5 4 4 6 5 2 4 1 10 3 7 8 5 6 6 6 7 7 15 15 4 7 8 9 13 6 5 12 2 16 3 8 6 12 14 10 8 9 8
27 23 16 3 1 8 7 5 6 6 2 3 3 7 8 6 7 10 10 8 1 3 9 9 7 5 2 6 8 12 7 6 5 1 2 6 5 11 11 11 14 7 15 15 12
30 26 8 2 5 3 5 5 6 5 5 7 6 8 9 10 7 12 10 10 4 7 6 6 5 6 4 14 11 13 6 6 7 5 7 5 6 11 9 3 13 13 15 17 18
32 25 6 5 6 4 4 6 7 1 3 3 5 11 5 10 6 13 12 5 9 5 4 7 11 6 9 15 7 9 3 2 6 3 11 11 5 4 10 8 11 15 15 18 22
25 4 2 6 6 4 7 6 2 1 2 4 8 5 6 11 6 9 5 2 2 3 4 6 7 19 16 13 5 6 2 6 5 5 4 5 6 2 18 20 20 19 20 18 16
4 5 4 4 5 6 7 2 3 2 3 3 3 2 5 4 5 6 5 3 2 5 3 4 12 7 8 7 4 6 5 3 0 4 4 6 3 5 17 18 18 18 17 18 19
3 5 6 3 5 6 4 4 2 2 5 4 3 4 1 3 1 3 5 7 2 1 3 3 3 9 8 2 8 3 3 3 3 4 2 4 2 6 10 11 15 17 17 17 17
4 4 5 4 6 1 2 4 3 5 3 2 3 3 4 3 4 4 5 3 8 3 4 2 3 6 11 17 3 4 3 4 4 4 4 4 3 7 10 14 15 17 18 18 16
4 4 5 6 3 3 5 5 3 3 3 4 2 4 5 4 1 6 6 5 8 3 4 3 2 6 9 5 1 3 10 10 6 3 5 5 4 3 14 16 16 18 19 18 21
2 5 6 6 0 4 4 5 4 4 2 3 5 5 1 4 5 6 11 6 2 6 5 9 4 7 6 13 12 10 10 9 5 2 7 6 15 16 18 20 21 20 18 19 18
1 4 4 5 5 6 3 4 8 5 1 2 3 2 3 2 7 6 3 5 8 4 6 4 5 5 14 18 18 17 3 10 5 3 5 8 13 10 18 19 21 19 20 19 21
0 2 5 4 4 3 2 4 4 5 4 5 5 8 7 6 11 13 4 2 7 3 4 2 4 5 15 13 9 9 4 10 10 7 3 9 10 11 16 16 16 19 17 18 21
3 1 5 5 4 1 5 2 7 7 5 5 6 3 7 9 6 11 13 14 9 6 4 3 2 4 7 11 9 4 2 9 11 4 5 5 9 14 15 16 15 12 14 20 21
Wind_Direction
354 352 349 345 342 339 338 333 332 333 335 338 345 345 333 315 310 176 249 216 193 264 321 292 322 358 118 275 227 123 330 250 257 247 275 309 311 293 284 287 323 306 277 210 158
353 350 348 346 342 339 336 333 333 331 332 338 345 338 326 331 328 317 262 238 260 274 153 47 348 351 18 239 294 174 199 244 253 286 288 295 290 293 314 312 311 327 332 165 151
351 349 347 345 340 337 335 337 339 339 343 349 347 335 317 341 345 308 214 215 244 187 291 266 282 323 290 8 246 242 250 269 275 279 276 285 290 290 289 288 284 292 320 3 161
350 348 346 344 339 334 330 331 334 337 341 345 340 344 328 311 66 278 190 196 211 321 306 335 345 7 312 295 269 279 276 273 284 277 281 274 277 281 279 268 274 259 267 275 306
348 348 346 343 338 332 326 324 325 324 328 327 328 346 155 59 34 299 203 154 189 201 248 353 40 355 330 302 320 297 302 298 299 293 291 306 286 279 279 280 274 258 258 232 193
347 346 345 341 338 332 325 319 318 310 313 313 317 327 252 67 269 31 226 165 231 159 324 348 278 241 245 246 297 263 297 300 305 301 278 289 296 288 283 306 295 258 251 205 219
345 344 343 341 337 334 327 318 316 307 307 303 319 305 309 77 319 327 4 292 281 348 324 289 278 295 250 298 248 249 294 296 299 295 289 290 278 272 301 313 298 281 267 264 214
343 343 341 340 338 335 328 317 312 305 302 277 321 341 98 265 271 348 3 338 344 8 331 303 346 255 199 260 321 287 308 309 350 312 308 27 300 315 345 340 338 317 281 282 267
341 341 340 339 340 335 326 314 309 310 149 259 56 58 321 318 342 311 120 22 353 355 342 330 5 330 360 25 355 0 297 311 300 259 290 205 302 308 310 317 320 321 319 282 276
340 339 339 338 339 332 325 310 301 4 92 169 257 47 324 306 298 109 37 53 6 344 323 352 37 24 5 49 296 293 290 281 292 272 278 284 283 304 301 298 317 311 307 304 263
340 339 337 332 335 329 342 4 20 352 42 200 270 237 236 270 314 41 74 115 9 40 355 314 32 317 278 258 247 279 289 297 299 292 295 285 291 295 304 303 313 312 314 307 310
339 337 335 330 327 322 238 52 167 198 322 297 252 262 244 261 321 348 45 51 33 320 328 359 282 266 257 276 297 295 292 298 290 293 286 286 293 306 285 285 313 297 302 308 311
337 336 334 330 323 358 280 313 171 108 101 292 243 196 277 309 266 334 147 258 288 305 290 226 277 342 331 313 309 303 293 309 298 320 282 286 290 292 276 284 297 284 273 290 297
334 334 334 329 31 319 315 319 115 103 69 272 193 302 338 330 61 181 303 314 321 274 294 256 326 323 317 298 338 312 278 267 297 7 279 3 286 279 273 288 296 293 279 281 301
331 332 331 329 268 334 258 316 117 59 63 19 14 22 317 33 282 352 4 349 306 319 51 282 320 322 335 359 340 277 315 282 282 294 315 282 274 270 282 289 288 275 271 285 284
329 329 331 110 260 238 310 295 55 49 77 20 52 326 6 348 351 2 2 19 17 350 16 324 292 307 91 345 326 320 314 313 325 52 338 257 177 272 253 247 274 328 354 339 305
329 322 304 263 241 310 349 51 46 84 337 0 335 335 329 351 18 9 345 41 36 6 340 321 297 314 46 349 319 352 31 325 347 347 232 309 316 247 252 356 40 356 359 6 352
328 319 195 219 255 14 40 57 70 64 19 10 329 316 25 20 14 357 348 1 36 68 318 351 329 16 331 316 279 296 136 218 292 266 293 309 236 291 47 41 34 19 1 7 351
323 323 277 257 223 109 67 54 195 69 51 1 332 23 348 354 340 11 322 337 58 67 73 327 264 312 303 327 320 318 24 219 253 261 278 259 299 185 15 17 14 5 4 360 352
331 328 276 251 133 63 72 197 143 90 134 74 59 34 325 349 11 14 303 109 82 71 117 246 293 287 310 315 77 46 338 330 174 297 279 290 42 15 11 0 357 358 347 342 339
11 1 262 29 74 52 123 206 187 223 147 151 214 274 279 325 287 288 261 312 98 60 42 257 180 290 323 289 316 346 318 286 229 249 313 320 249 355 353 360 352 346 339 338 332
351 352 287 38 53 57 83 308 237 243 167 162 174 235 199 231 275 242 240 208 300 95 323 278 250 281 279 295 294 170 280 268 238 285 269 244 252 263 27 2 344 329 332 331 325
347 273 317 71 93 343 303 299 241 323 168 139 179 224 251 246 344 210 245 247 257 137 206 198 272 302 325 349 7 342 342 325 230 247 277 300 294 307 9 346 336 330 329 329 327
36 342 324 35 302 94 354 270 303 339 111 142 211 233 322 274 192 274 285 297 249 281 250 151 189 202 253 278 291 288 326 14 6 307 316 268 318 335 350 338 333 330 324 325 325
125 260 211 301 319 323 179 265 279 286 166 124 333 312 233 215 299 255 239 288 302 287 132 115 247 232 252 264 281 297 316 355 352 3 253 322 306 344 338 326 321 320 326 335 328
161 31 348 278 276 281 245 262 254 270 182 253 193 254 249 212 198 274 234 232 248 263 114 138 270 288 294 273 285 287 21 350 357 334 264 303 296 340 313 314 316 323 322 333 326
297 345 109 272 297 351 232 325 312 301 287 194 228 238 275 262 228 235 226 255 222 188 143 172 267 294 293 321 328 191 359 348 315 322 300 311 315 327 327 327 321 305 306 321 318